Hagerstown, MD

1:18 PM EDT on July 22, 2017 (GMT -0400)
Hagerstown Regional-Henson

Weather History for KHGR - October, 2012

Change the Weather History Date:

Tuesday, October 23, 2012

  Actual Average Record
Temperature  
Mean Temperature 61 °F 53 °F  
Max Temperature 71 °F 63 °F 77 °F (2001)
Min Temperature 50 °F 42 °F 28 °F (1997)
Degree Days  
Heating Degree Days 4 13  
Month to date heating degree days 222 217  
Since 1 July heating degree days 288 291  
Cooling Degree Days 0 0  
Month to date cooling degree days 10 9  
Year to date cooling degree days 1275 968  
Growing Degree Days 10 (Base 50)    
Moisture  
Dew Point 52 °F    
Average Humidity 81    
Maximum Humidity 100    
Minimum Humidity 61    
Precipitation  
Precipitation 0.16 in 0.08 in 0.16 in (2012)
Month to date precipitation 1.68 2.27  
Year to date precipitation 29.42 32.57  
Sea Level Pressure  
Sea Level Pressure 30.12 in    
Wind  
Wind Speed 4 mph (SSE)    
Max Wind Speed 15 mph    
Max Gust Speed 20 mph    
Visibility 8 miles    
Events Rain    
T = Trace of Precipitation, MM = Missing Value Source: NWS Daily Summary

Daily Weather History Graph

Daily Weather History Graph

Search for Another Location

Airport or City:

Trip Planner

Search our weather history database for the weather conditions in past years. The results will help you decide how hot, cold, wet, or windy it might be!

Date:

Astronomy

Oct. 23, 2012 Rise Set
Actual Time 7:30 AM EDT 6:19 PM EDT
Civil Twilight 7:02 AM EDT 6:47 PM EDT
Nautical Twilight 6:31 AM EDT 7:18 PM EDT
Astronomical Twilight 5:59 AM EDT 7:49 PM EDT
Moon 3:01 PM EDT (10/23) 1:20 AM EDT (10/23)
Length of Visible Light 11h 44m
Length of Day
10h 49m
Waxing Gibbous, 66% of the Moon is Illuminated
Oct 23
Waxing Gibbous
Oct 29
Full
Nov 6
Last Quarter
Nov 13
New
Nov 20
First Quarter

Hourly Weather History & Observations

Time (EDT) Temp. Dew Point Humidity Pressure Visibility Wind Dir Wind Speed Gust Speed Precip Events Conditions
12:53 AM 55.0 °F 46.0 °F 72% 30.14 in 10.0 mi SE 3.5 mph - N/A   Clear
2:53 AM 54.0 °F 46.0 °F 75% 30.12 in 10.0 mi South 5.8 mph - N/A   Clear
3:53 AM 53.1 °F 46.0 °F 77% 30.12 in 10.0 mi SE 4.6 mph - N/A   Clear
4:53 AM 53.1 °F 46.9 °F 80% 30.13 in 10.0 mi South 3.5 mph - N/A   Clear
5:53 AM 53.1 °F 46.0 °F 77% 30.12 in 10.0 mi SSE 6.9 mph - N/A   Scattered Clouds
6:53 AM 50.0 °F 46.0 °F 86% 30.14 in 10.0 mi Calm Calm - N/A   Mostly Cloudy
8:39 AM 51.8 °F 48.2 °F 88% 30.16 in 2.0 mi NNE 5.8 mph - 0.04 in Rain Rain
8:53 AM 52.0 °F 50.0 °F 93% 30.18 in 2.0 mi ESE 6.9 mph - 0.07 in Rain Light Rain
9:00 AM 51.8 °F 48.2 °F 88% 30.16 in 6.0 mi ESE 11.5 mph - 0.00 in Rain Light Rain
9:53 AM 52.0 °F 50.0 °F 93% 30.17 in 3.0 mi ESE 6.9 mph - 0.08 in Rain Light Rain
10:53 AM 55.0 °F 54.0 °F 96% 30.16 in 8.0 mi Calm Calm - 0.01 in   Overcast
11:53 AM 55.9 °F 55.0 °F 97% 30.14 in 5.0 mi West 5.8 mph - N/A   Overcast
2:53 PM 69.1 °F 57.0 °F 65% 30.08 in 10.0 mi South 4.6 mph - N/A   Mostly Cloudy
3:53 PM 70.0 °F 55.0 °F 59% 30.07 in 10.0 mi SW 3.5 mph - N/A   Clear
4:53 PM 71.1 °F 57.0 °F 61% 30.06 in 10.0 mi SSE 4.6 mph - N/A   Clear
5:53 PM 68.0 °F 57.0 °F 68% 30.07 in 10.0 mi Calm Calm - N/A   Clear
6:53 PM 64.9 °F 57.0 °F 75% 30.08 in 10.0 mi Calm Calm - N/A   Clear
7:53 PM 64.0 °F 57.0 °F 78% 30.09 in 10.0 mi Calm Calm - N/A   Clear
8:53 PM 63.0 °F 55.9 °F 78% 30.09 in 10.0 mi Calm Calm - N/A   Partly Cloudy
9:53 PM 63.0 °F 55.9 °F 78% 30.10 in 10.0 mi Calm Calm - N/A   Clear
10:53 PM 63.0 °F 57.0 °F 81% 30.10 in 10.0 mi East 6.9 mph - N/A   Clear
11:53 PM 60.1 °F 55.9 °F 86% 30.10 in 9.0 mi Variable 5.8 mph - N/A   Clear